Location: Unspecified
(0.0000°N, 0.0000°E)
Time: 00:42:31
(UTC+00:00)

STARLINK-32799 - Pass Details

Date: 07 March 2026
Orbit: 482 x 484 km, 43.0° (Epoch: 13 April)

Event Time Altitude Azimuth Distance (km) Brightness Sun altitude
Rises 18:52:18 0° 208° (SSW) 2,535 ? -10.3°
Reaches altitude 10° 18:54:40 10° 197° (SSW) 1,653 ? -10.9°
Maximum altitude 18:58:00 30° 135° (SE) 890 ? -11.7°
Enters shadow 18:59:53 19° 88° (E) 1,190 ? -12.2°
